| time (UTC) | temp C | wind direction | speed KPH | gust KPH | rain 1hr cm | rain 24hr cm | rain mn cm | humidity % | barometer mb |
| 20260906092714 | 20 | 134 | 0.0 | 0.0 | 0.00 | 0.00 | 0.00 | 99 | 1009.5 |
| 20260906090714 | 20 | 135 | 0.0 | 0.0 | 0.00 | 0.00 | 0.00 | 99 | 1009.3 |
| 20260906084712 | 21 | 135 | 0.0 | 0.0 | 0.00 | 0.00 | 0.00 | 99 | 1009.0 |
| 20260906082709 | 21 | 135 | 0.0 | 0.0 | 0.00 | 0.00 | 0.00 | 99 | 1009.1 |
| 20260906080710 | 21 | 135 | 0.0 | 0.0 | 0.00 | 0.00 | 0.00 | 99 | 1009.1 |
| 20260906074707 | 21 | 142 | 0.0 | 0.0 | 0.00 | 0.00 | 0.00 | 99 | 1009.0 |
| 20260906072703 | 21 | 127 | 0.0 | 0.0 | 0.00 | 0.00 | 0.00 | 99 | 1009.0 |
| 20260906070703 | 21 | 141 | 0.0 | 0.0 | 0.00 | 0.00 | 0.00 | 99 | 1009.1 |
| 20260906064700 | 21 | 151 | 0.0 | 0.0 | 0.00 | 0.00 | 0.00 | 99 | 1009.0 |
| 20260906062659 | 21 | 144 | 0.0 | 0.0 | 0.00 | 0.00 | 0.00 | 99 | 1009.7 |
| 20260906060656 | 21 | 144 | 0.0 | 0.0 | 0.00 | 0.00 | 0.00 | 99 | 1009.7 |
| 20260906054651 | 21 | 142 | 0.0 | 0.0 | 0.00 | 0.00 | 0.00 | 99 | 1010.0 |
| 20260906052651 | 21 | 142 | 0.0 | 0.0 | 0.00 | 0.00 | 0.00 | 99 | 1010.0 |
| 20260906050650 | 21 | 143 | 0.0 | 0.0 | 0.00 | 0.00 | 0.00 | 99 | 1010.3 |
| 20260906044647 | 21 | 132 | 0.0 | 0.0 | 0.00 | 0.00 | 0.00 | 99 | 1010.0 |
| 20260906042644 | 21 | 134 | 0.0 | 0.0 | 0.00 | 0.00 | 0.00 | 99 | 1010.1 |
| 20260906040642 | 21 | 133 | 0.0 | 0.0 | 0.00 | 0.00 | 0.00 | 99 | 1009.9 |
| 20260906034641 | 21 | 133 | 0.0 | 0.0 | 0.00 | 0.94 | 0.94 | 99 | 1009.9 |
| 20260906032640 | 21 | 138 | 0.0 | 0.0 | 0.00 | 0.94 | 0.94 | 99 | 1010.4 |
| 20260906030635 | 21 | 135 | 0.0 | 0.0 | 0.00 | 0.94 | 0.94 | 99 | 1010.3 |
| 20260906024630 | 21 | 129 | 0.0 | 0.0 | 0.00 | 0.94 | 0.94 | 99 | 1010.5 |
| 20260906022627 | 22 | 122 | 0.0 | 0.0 | 0.00 | 0.94 | 0.94 | 99 | 1010.1 |
| 20260906020622 | 21 | 121 | 0.0 | 0.0 | 0.00 | 0.94 | 0.94 | 99 | 1009.8 |
| 20260906014617 | 22 | 125 | 0.0 | 0.0 | 0.00 | 0.94 | 0.94 | 99 | 1009.6 |
| 20260906012616 | 22 | 124 | 0.0 | 0.0 | 0.00 | 0.94 | 0.94 | 99 | 1009.3 |
| 20260906010613 | 22 | 125 | 0.0 | 0.0 | 0.00 | 0.94 | 0.94 | 99 | 1009.1 |
| 20260906004614 | 22 | 143 | 0.0 | 0.0 | 0.00 | 0.94 | 0.94 | 99 | 1009.2 |
| 20260906002612 | 22 | 109 | 0.0 | 0.0 | 0.00 | 0.94 | 0.94 | 99 | 1009.3 |
| 20260906000610 | 21 | 70 | 1.6 | 1.6 | 0.00 | 0.94 | 0.94 | 99 | 1009.4 |
| 20260905234606 | 21 | 184 | 0.0 | 4.8 | 0.18 | 0.94 | 0.94 | 99 | 1009.6 |
| 20260905232603 | 21 | 178 | 0.0 | 0.0 | 0.00 | 0.91 | 0.91 | 99 | 1009.9 |
| 20260905230602 | 22 | 122 | 0.0 | 0.0 | 0.00 | 0.91 | 0.91 | 99 | 1010.1 |
| 20260905224601 | 22 | 136 | 0.0 | 8.0 | 0.00 | 0.91 | 0.91 | 99 | 1009.6 |
| 20260905222600 | 22 | 125 | 0.0 | 0.0 | 0.00 | 0.91 | 0.91 | 99 | 1009.7 |
| 20260905220554 | 22 | 135 | 0.0 | 3.2 | 0.00 | 0.91 | 0.91 | 99 | 1009.6 |
| 20260905214554 | 21 | 154 | 0.0 | 0.0 | 2.59 | 0.91 | 0.91 | 95 | 1008.4 |
| 20260905212551 | 28 | 68 | 4.8 | 12.9 | 0.00 | 0.00 | 0.00 | 71 | 1008.8 |
| 20260905210548 | 36 | 150 | 0.0 | 0.0 | 0.00 | 0.00 | 0.00 | 53 | 1007.5 |
| 20260905204543 | 37 | 163 | 0.0 | 4.8 | 0.00 | 0.00 | 0.00 | 50 | 1007.9 |
| 20260905202540 | 38 | 209 | 4.8 | 8.0 | 0.00 | 0.00 | 0.00 | 50 | 1007.5 |
| 20260905200538 | 38 | 227 | 3.2 | 9.7 | 0.00 | 0.00 | 0.00 | 51 | 1007.4 |
| 20260905194538 | 37 | 111 | 1.6 | 8.0 | 0.00 | 0.00 | 0.00 | 51 | 1007.7 |
| 20260905192535 | 38 | 106 | 1.6 | 3.2 | 0.00 | 0.00 | 0.00 | 50 | 1008.0 |
| 20260905190533 | 37 | 282 | 4.8 | 8.0 | 0.00 | 0.00 | 0.00 | 52 | 1008.5 |
| 20260905184532 | 37 | 178 | 0.0 | 3.2 | 0.00 | 0.00 | 0.00 | 52 | 1009.0 |
| 20260905182532 | 36 | 97 | 0.0 | 1.6 | 0.00 | 0.00 | 0.00 | 55 | 1009.5 |
| 20260905180532 | 36 | 243 | 4.8 | 8.0 | 0.00 | 0.00 | 0.00 | 56 | 1010.0 |
| 20260905174530 | 36 | 192 | 4.8 | 4.8 | 0.00 | 0.00 | 0.00 | 55 | 1010.2 |
| 20260905172527 | 35 | 203 | 1.6 | 8.0 | 0.00 | 0.00 | 0.00 | 58 | 1010.3 |
| 20260905170523 | 35 | 72 | 0.0 | 8.0 | 0.00 | 0.00 | 0.00 | 58 | 1010.7 |
| 20260905164519 | 35 | 240 | 3.2 | 4.8 | 0.00 | 0.00 | 0.00 | 60 | 1010.9 |
| 20260905162520 | 33 | 141 | 0.0 | 3.2 | 0.00 | 0.00 | 0.00 | 62 | 1011.5 |
| 20260905160517 | 33 | 203 | 1.6 | 9.7 | 0.00 | 0.00 | 0.00 | 65 | 1011.5 |
| 20260905154517 | 32 | 143 | 1.6 | 8.0 | 0.00 | 0.00 | 0.00 | 66 | 1011.8 |
| 20260905152513 | 32 | 290 | 1.6 | 4.8 | 0.00 | 0.00 | 0.00 | 69 | 1012.0 |
| 20260905150511 | 31 | 172 | 1.6 | 3.2 | 0.00 | 0.00 | 0.00 | 74 | 1012.1 |
| 20260905144509 | 30 | 137 | 1.6 | 3.2 | 0.00 | 0.00 | 0.00 | 77 | 1012.4 |
| 20260905142507 | 29 | 148 | 0.0 | 3.2 | 0.00 | 0.00 | 0.00 | 83 | 1012.3 |
| 20260905140506 | 28 | 230 | 0.0 | 4.8 | 0.00 | 0.00 | 0.00 | 84 | 1012.3 |
| 20260905134501 | 27 | 173 | 3.2 | 3.2 | 0.00 | 0.00 | 0.00 | 86 | 1012.5 |
| 20260905132456 | 27 | 139 | 3.2 | 11.3 | 0.00 | 0.00 | 0.00 | 88 | 1012.6 |
| 20260905130452 | 26 | 243 | 4.8 | 4.8 | 0.00 | 0.00 | 0.00 | 92 | 1012.7 |
| 20260905124451 | 25 | 254 | 8.0 | 9.7 | 0.00 | 0.00 | 0.00 | 95 | 1012.4 |
| 20260905122448 | 25 | 134 | 1.6 | 8.0 | 0.00 | 0.00 | 0.00 | 98 | 1012.6 |
| 20260905120444 | 24 | 168 | 1.6 | 3.2 | 0.00 | 0.00 | 0.00 | 99 | 1012.2 |
| 20260905114439 | 23 | 188 | 1.6 | 3.2 | 0.00 | 0.00 | 0.00 | 99 | 1012.3 |
| 20260905112436 | 23 | 126 | 0.0 | 0.0 | 0.00 | 0.00 | 0.00 | 99 | 1012.1 |
| 20260905110437 | 23 | 137 | 0.0 | 0.0 | 0.00 | 0.00 | 0.00 | 99 | 1012.1 |
| 20260905104432 | 23 | 131 | 0.0 | 0.0 | 0.00 | 0.00 | 0.00 | 99 | 1011.8 |
| 20260905102432 | 23 | 135 | 0.0 | 0.0 | 0.00 | 0.00 | 0.00 | 99 | 1011.4 |
| 20260905100427 | 24 | 142 | 0.0 | 0.0 | 0.00 | 0.00 | 0.00 | 99 | 1011.7 |
| 20260905094423 | 24 | 129 | 0.0 | 1.6 | 0.00 | 0.00 | 0.00 | 99 | 1011.5 |